Regional Weather Roundup
Issued by NWS

Home | Current Version | Previous Version | Graphics & Text | Print | Product List | Glossary On
Versions: 1 2 3 4 5 6 7 8 9 10 11 12 13 14 15 16 17 18 19 20 21 22 23 24 25 26 27 28 29 30 31 32 33 34 35 36 37 38 39 40 41 42 43 44 45 46 47 48 49 50
000
ASUS43 KIND 271509
RWRIN

WEATHER ROUNDUP FOR INDIANA
NATIONAL WEATHER SERVICE INDIANAPOLIS IN
1100 AM EDT WED MAY 27 2015

NOTE: "FAIR" INDICATES FEW OR NO CLOUDS BELOW 12,000 FEET WITH NO
SIGNIFICANT WEATHER AND/OR OBSTRUCTIONS TO VISIBILITY.

* - STATION DOES NOT REPORT WEATHER SUCH AS PRECIPITATION OR FOG.

+ - STATION NOT QUALITY CONTROLLED BY THE NATIONAL WEATHER SERVICE.
    USE DATA WITH CAUTION...ESPECIALLY DEWPOINT AND RELATIVE
    HUMIDITY OBSERVATIONS.

INZ001>003-010>013-019-020-271600-
NORTHWEST INDIANA

CITY           SKY/WX    TMP DP  RH WIND       PRES   REMARKS
GARY /AIRPORT/ PTSUNNY   73  61  64 W17G29    29.96
KNOX *+        PTSUNNY   70  63  78 SW13      29.98S
LA PORTE +     MOSUNNY   74  64  71 SW16G22   29.99R
MICHIGAN CITY+ PTSUNNY   72  59  64 SW14G22   29.97S
MONTICELLO +   MOSUNNY   72  65  79 SW13      30.00F
RENSSELAER +   PTSUNNY   70  66  88 SW12G18   30.00S
VALPARAISO     PTSUNNY   72  62  71 SW14G23   29.98S

$$

LMZ046-743>745-271600-
SOUTHERN LAKE MICHIGAN

STATION/POSITION TIME  TEMP    WIND        PRES    WAVE
                       AIR SEA DIR/SP/G            HT
                 (UTC) (F)     (DEG/KT/KT) (MB)    (FT)
BURNS HARBOR     1500   70     230/ 13/ 19 1014.9S
MICHIGAN CITY    1500   65     220/ 17/ 19   N/A
5NW MICH CITY    1500   59 52  250/  8/ 10   N/A     1

$$

INZ004-005-014>016-021>024-271600-
NORTH CENTRAL INDIANA

CITY           SKY/WX    TMP DP  RH WIND       PRES   REMARKS
ELKHART        PTSUNNY   73  63  68 SW12G17   29.98F
GOSHEN         MOSUNNY   73  64  73 SW17      29.99S
LOGANSPORT +   PTSUNNY   73  61  64 SW12G24   30.02F
PERU/GRISSOM   MOSUNNY   75  65  69 W16       30.01S
ROCHESTER +    MOSUNNY   73  68  83 W8G16     30.01S
SOUTH BEND     PTSUNNY   72  62  71 SW16G23   29.97F
WARSAW +       LGT RAIN  70  63  78 SW9G20    30.01R

$$

INZ006>009-017-018-025>027-271600-
NORTHEAST INDIANA

CITY           SKY/WX    TMP DP  RH WIND       PRES   REMARKS
ANGOLA *+      MOSUNNY   73  66  78 W15       29.99S
AUBURN +       MOSUNNY   75  61  60 SW8G18    30.01F
FORT WAYNE     PTSUNNY   75  64  68 SW18      30.03S
HUNTINGTON +   PTSUNNY   74  63  67 SW14G22   30.02S

$$

INZ028-029-035-036-043>045-051>053-271600-
WEST CENTRAL INDIANA

CITY           SKY/WX    TMP DP  RH WIND       PRES   REMARKS
CRAWFORDSVL +  MOSUNNY   74  58  57 SW14      30.04F
GREENCASTLE +  MOSUNNY   75  59  57 SW6       30.06F
LAFAYETTE      PTSUNNY   73  64  73 SW10      30.01F
TERRE HAUTE    PTSUNNY   76  65  68 SW10      30.05F

$$

INZ030>032-037>040-046>048-054>057-064-065-271600-
CENTRAL INDIANA

CITY           SKY/WX    TMP DP  RH WIND       PRES   REMARKS
ANDERSON       MOSUNNY   73  61  64 S12G17    30.08F
CP ATTERBURY + SUNNY     73  63  68 SW12      30.09F
FISHERS *+     SUNNY     75  66  73 SW10      30.06F
FRANKFORT +    SUNNY     77  64  63 S14       30.05S
GREENWOOD *+   SUNNY     75  61  60 SW10      30.08F
INDIANAPOLIS   MOSUNNY   77  62  59 SW16      30.05F
-EAGLE CREEK   SUNNY     76  62  62 SW8G20    30.05F
KOKOMO *+      PTSUNNY   75  63  64 SW20G28   30.03S
MARION +       PTSUNNY   76  61  60 SW16      30.04F
MT COMFORT *+  SUNNY     75  57  53 SW12      30.07F
SHELBYVILLE    MOSUNNY   76  65  68 S13       30.08F
ZIONSVILLE +   MOSUNNY   78  61  55 S14       30.06F

$$

INZ033-034-041-042-049-050-058-059-271600-
EAST CENTRAL INDIANA

CITY           SKY/WX    TMP DP  RH WIND       PRES   REMARKS
MUNCIE         SUNNY     75  63  66 SW14G21   30.06F

$$

INZ060-061-067>069-081>083-085>088-271600-
SOUTHWEST INDIANA

CITY           SKY/WX    TMP DP  RH WIND       PRES   REMARKS
EVANSVILLE     MOSUNNY   76  67  73 SW8       30.12R
HUNTINGBURG *+ CLOUDY    73  64  73 SW14      30.12R
WASHINGTON +   MOSUNNY   76  63  63 SW12      30.09R

$$

INZ062-063-066-070>080-084-089>092-271600-
SOUTH CENTRAL AND SOUTHEAST INDIANA

CITY           SKY/WX    TMP DP  RH WIND       PRES   REMARKS
BLOOMINGTON      N/A     76  63  64 MISG      30.08F
MADISON *+     PTSUNNY   73  64  73 SW12      30.14F
NORTH VERNON + MOSUNNY   75  66  73 SW10      30.12F
SEYMOUR +      SUNNY     77  63  61 SW12      30.10F

$$



USA.gov is the U.S. government's official web portal to all federal, state and local government web resources and services.